Other Surface Observations
Issued by NWS

Home | Current Version | Previous Version | Text Only | Print | Product List | Glossary On
Versions: 1 2 3 4 5 6 7 8 9 10 11 12 13 14 15 16 17 18 19 20 21 22 23 24 25 26 27 28 29 30 31 32 33 34 35 36 37 38 39 40 41 42 43 44 45 46 47 48 49 50
721
SXUS52 KTAE 260718
OSOTAE
OSOTAE
North Florida/South Alabama/Southwest Georgia Weather Roundup
National Weather Service Tallahassee Florida
300 AM EDT THU MAY 26 2016

Note: "fair" indicates few or no clouds below 12,000 feet with no
significant weather and/or obstructions to visibility.

!FLZ017-115-028-034-025-260800
...North Florida...

CITY           SKY/WX    TMP DP  RH WIND       PRES   REMARKS
TALLAHASSEE    CLEAR     69  64  84 E6        30.14F
APALACHICOLA   CLOUDY    68  68 100 CALM      30.12F FOG
PERRY          CLEAR     70  60  69 E6        30.17F
CROSS CITY       N/A     64  58  80 CALM      30.17F
JACKSONVILLE   CLEAR     65  64  97 CALM      30.17F
$$

!FLZ112-006-005-002-011-260800
...Florida Panhandle...

CITY           SKY/WX    TMP DP  RH WIND       PRES   REMARKS
MARIANNA       CLEAR     68  67  96 CALM      30.13F
BONIFAY        NOT AVBL
PANAMA CITY NW FOG       66  65  96 CALM      30.12S VSB 3/4
TYNDALL AFB    FOG       66  66 100 E3        30.11F VSB 1/4
TYND DRONE APT FOG       68  68 100 CALM      30.11F VSB 7/8
DE FUNIAK SPR  FOG       68  68 100 CALM      30.15S VSB 3/4
EGLIN AFB      PTCLDY    75  71  86 SE6       30.11F
DESTIN         CLOUDY    78  73  84 SE6       30.11F
HURLBURT       CLOUDY    76  69  80 S9        30.10F
CRESTVIEW      CLOUDY    66  64  93 CALM      30.13F FOG
PENSACOLA      CLOUDY    73  68  84 S8        30.10F
$$

!ALZ063-066-260800
...South Alabama...

CITY           SKY/WX    TMP DP  RH WIND       PRES   REMARKS
DOTHAN         PTCLDY    71  68  90 CALM      30.16F
OZARK CAIRNS   CLEAR     69  67  95 N1        30.12F
FT RUCKER HELI PTCLDY    68  66  93 CALM      30.12F
RUCKER HELI 3  FAIR      69  67  96 NW2       30.14F
RUCKER HELI 2  NOT AVBL
FLORALA APT    MOCLDY    69  68  96 CALM      30.14F
ANDALUSIA      MOCLDY    71  65  81 CALM      30.13S
TROY           CLEAR     67  65  93 CALM      30.14F
EUFALA         FAIR      67  63  87 CALM      30.13S
MOBILE         PTCLDY    66  66 100 CALM      30.10F
$$

!GAZ120>161-260800
...Southwest and South Central Georgia...

CITY           SKY/WX    TMP DP  RH WIND       PRES   REMARKS
THOMASVILLE    FAIR      66  64  94 CALM      30.16F
BAINBRIDGE     CLEAR     70  64  83 CALM      30.14S
MOODY AFB      CLEAR     65  59  79 SE6       30.16F
VALDOSTA       CLEAR     70  60  70 S6        30.17F
MOULTRIE       CLEAR     70  64  83 SE5       30.16F
BLAKELY        CLEAR     68  66  94 CALM      30.14F
ALBANY         CLEAR     68  63  84 CALM      30.16S
TIFTON         FAIR      71  60  67 S6        30.16F
FITZGERALD     FAIR      68  60  75 CALM      30.18F
CORDELE        FAIR      75  61  61 S6        30.16S
AMERICUS       FAIR      64  64 100 CALM      30.16S
HOMERVILLE     FAIR      66  59  77 S3        30.19S
$$

!GMZ750-755-770-775-260800
...Coastal and Buoy Obs...

STATION/POSITION TIME  TEMP    WIND        PRES    VSBY  WAVE
                       AIR SEA DIR/SP/G                  HT/PER
                 (UTC) (F)     (DEG/KT/KT) (MB)    (MI)  (FT/S)
KEATON BEACH     0700   70      90/  6/  7 1020.9F
CEDAR KEY        0700   76     140/ 13/ 14 1021.8F
C TOWER          0700   75     110/ 13/ 14 1021.2R
APALACHICOLA BUO 0650   78 78   80/ 14/ 16 1019.6F         1/ 5
PANAMA CITY BUOY 0650   79 80  140/  8/  8 1020.1F         2/ 5
MOBILE BUOY      0700   77 78  140/  6/  6 1019.4F
ORANGE BCH AL BU 0650   76 80  150/ 10/ 12 1018.7F         1/ 5
$$




USA.gov is the U.S. government's official web portal to all federal, state and local government web resources and services.